Location: Niedergestelen
(46.3129°N, 7.7822°E)
Time: 06:06:46
(UTC+00:00)

Nadezhda 3 Rocket - Pass Details

Date: 01 December 2020
Orbit: 956 x 1000 km, 82.9° (Epoch: 18 January)

Event Time Altitude Azimuth Distance (km) Brightness Sun altitude
Rises 17:21:00 0° 169° (S) 3,706 7.1 -16.2°
Reaches altitude 10° 17:23:35 10° 165° (SSE) 2,763 6.4 -16.6°
Maximum altitude 17:29:41 51° 91° (E) 1,237 4.1 -17.6°
Drops below altitude 10° 17:35:49 10° 18° (NNE) 2,778 6.1 -18.6°
Sets 17:38:25 0° 13° (NNE) 3,728 6.8 -19.1°
